www.pogodaiklimat.ru

Погода и климат >> Архив погоды >> Россия >> Кемеровская область >> Кемерово


АРХИВ ПОГОДЫ в Кемерово

Время (UTC), дата Ветер
(напр.,м/с)
 
Видим.   Явления Облачность Т
(С)
Тd
(С)
f
(%)
Тe
(С)
Тes
(С)
Комфортность P
(гПа)
Po
(гПа)
Тmin
(С)
Tmax
(С)
R
(мм)
R24
(мм)
S
(см)
00 18.06 ЮВ 1 10 км 5/0
[Ci fib]
+10.7 +9.6 93 +10 +12 прохладно 1010.5 992.7 +5.4
03 18.06 ЮВ 3 20 км 6/0
[Ci fib]
+17.4 +8.9 57 +17 +25 по сезону 1008.6 991.3
06 18.06 ЮВ 3 50 км 8/0
[Ci sp]
+22.3 +5.5 34 +23 +34 комфорт 1005.2 988.2
09 18.06 Ю 2 20 км 10/6 600 м
[Sc As op]
+22.2 +8.9 43 +24 +25 комфорт 1004.0 987.0
12 18.06 СЗ 1 10 км слаб. ливневой дождь 10/10 600 м
[Cb cap]
+15.7 +14.2 91 +16 +16 холодно 1003.8 986.5 +22.9 2
15 18.06 штиль 0 10 км в посл. час ливневой дождь 10/10 600 м
[Cb cap]
+14.4 +13.8 96 +14 +14 прохладно 1003.1 985.7
18 18.06 Ю 2 10 км {ливн. осадки} 10/8 600 м
[Sc As op]
+14.1 +13.2 94 +14 +14 по сезону 1002.8 985.4
21 18.06 Ю 2 10 км в посл. час ливневой дождь 10/10 600 м
[Cb cap]
+14.0 +13.3 96 +13 +13 по сезону 1002.2 984.8
00 19.06 Ю 3 20 км {ливн. осадки} 3/1 600 м
[Cu hum Ac cuf]
+14.6 +11.0 79 +14 +15 по сезону 1004.7 987.3 +13.8 2
03 19.06 ЮЗ 5-10
{10}
10 км слаб. ливневой дождь 10/10 600 м
[Cb cap]
+14.7 +10.5 76 +13 +13 прохладно 1006.9 989.4
06 19.06 ЮЗ 4-10
{13}
20 км {ливн. осадки} 8/5 600 м
[Sc Ci fib]
+17.9 +8.6 54 +18 +23 прохладно 1008.9 991.6
09 19.06 З 3
{10}
20 км в посл. час ливневой дождь 6/5 600 м
[Sc Ci fib]
+18.2 +8.8 54 +19 +23 прохладно 1010.5 993.2
12 19.06 ЮЗ 3
{10}
20 км 6/3 600 м
[Sc Ci fib]
+19.8 +6.1 41 +21 +22 комфорт 1011.3 994.1 +19.8 1
15 19.06 Ю 1 20 км 3/3 600 м
[Sc Ci fib]
+15.2 +7.6 60 +16 +16 по сезону 1012.7 995.2
18 19.06 штиль 0 20 км 5/3 600 м
[Sc Ci fib]
+9.2 +8.1 93 +8 +8 холодно 1013.8 995.9
21 19.06 ЮВ 1 20 км 10/10 600 м
[Sc]
+11.1 +9.6 90 +11 +11 по сезону 1014.0 996.3
00 20.06 Ю 2 20 км 8/6 600 м
[Sc Ci fib]
+12.9 +9.8 81 +12 +13 по сезону 1015.4 997.7 +9.0
03 20.06 ЮВ 2 20 км 6/3 600 м
[Sc Ci fib]
+17.5 +11.1 66 +18 +24 тепло 1015.5 998.1
06 20.06 Ю 2 20 км 8/6 600 м
[Cu med, cong Ci fib]
+22.0 +8.9 43 +23 +29 комфорт 1014.9 997.7
09 20.06 ЮВ 2 20 км гроза без осадков 6/5 600 м
[Cb cap Ci fib]
+22.2 +8.8 42 +24 +29 комфорт 1014.4 997.2
12 20.06 штиль 0
{10}
20 км 9/8 600 м
[Cb cap Ci fib]
+19.6 +10.1 54 +21 +21 комфорт 1015.2 998.0 +22.5 0.4
15 20.06 З 1
{10}
20 км {гроза, ливн. осадки} 3/3 600 м
[Sc]
+13.5 +12.1 91 +14 +14 прохладно 1016.1 998.5
18 20.06 штиль 0 20 км {гроза, ливн. осадки} 1/0
[Ci fib]
+11.0 +10.6 97 +10 +10 прохладно 1016.5 998.7
21 20.06 штиль 0 4000 м дымка 3/0
[Ci fib]
+8.9 +8.6 98 +8 +8 холодно 1016.8 998.8
00 21.06 штиль 0 50 м туман 1/0
[Ci fib]
+10.6 +10.3 98 +10 +12 прохладно 1017.2 999.3 +7.7 1
03 21.06 СВ 1 20 км {туман} 1/1 600 м
[Cu med, cong]
+19.4 +11.7 61 +22 +32 комфорт 1016.3 999.0
06 21.06 С 1 20 км {туман} 3/3 1000 м
[Cu med, cong]
+22.7 +8.2 39 +24 +37 комфорт 1015.1 998.0
09 21.06 СЗ 2 20 км 5/3 1000 м
[Cu med, cong Ci sp]
+23.7 +9.0 39 +24 +32 комфорт 1013.6 996.6
12 21.06 СЗ 1 20 км 3/1 600 м
[Cu med, cong Ci fib]
+24.0 +6.8 33 +24 +27 комфорт 1012.6 995.6 +24.5
15 21.06 З 1 20 км 1/0
[Ci fib]
+15.6 +11.9 79 +16 +16 по сезону 1012.2 994.7
18 21.06 штиль 0 20 км ясно +11.4 +10.0 91 +11 +11 прохладно 1011.5 993.8
21 21.06 штиль 0 4000 м дымка ясно +9.3 +8.7 96 +8 +8 холодно 1010.6 992.7
00 22.06 ЮВ 1 4000 м дымка 5/0
[Ci fib]
+12.9 +11.0 88 +13 +15 по сезону 1010.0 992.4 +8.3
03 22.06 Ю 1 10 км 8/0
[Ci]
+19.8 +13.1 65 +23 +33 комфорт 1008.9 991.7
06 22.06 ЮЗ 1 20 км 4/3 600 м
[Cu hum Ci fib]
+24.8 +10.3 40 +26 +39 жарко 1007.6 990.7
09 22.06 Ю 2 20 км 6/6 1000 м
[Cu med, cong]
+25.6 +9.7 37 +26 +31 жарко 1005.9 989.1
12 22.06 ЮВ 2 20 км {гроза, ливн. осадки} 8/5 600 м
[Cb cap Ci ing]
+22.7 +12.2 51 +25 +27 комфорт 1006.0 989.0 +26.4 0.0
15 22.06 СВ 1 20 км гроза без осадков 10/10 600 м
[Cb cap]
+19.5 +13.4 68 +22 +22 комфорт 1006.7 989.5
18 22.06 ЮЗ 2 20 км {гроза, ливн. осадки} 8/3 600 м
[Sc Ci fib]
+15.2 +13.9 92 +15 +15 по сезону 1006.5 989.2
21 22.06 Ю 1 20 км 9/4 600 м
[Sc Ci fib]
+14.9 +13.9 94 +15 +15 по сезону 1006.6 989.2
00 23.06 Ю 1 20 км 8/3 600 м
[Sc Ci fib]
+15.3 +14.1 93 +16 +17 тепло 1007.1 989.7 +13.4 0.0
03 23.06 Ю 1 20 км 8/3 600 м
[Sc Ci fib]
+20.9 +14.6 67 +25 +32 комфорт 1006.6 989.6
06 23.06 З 1 20 км 10/10 600 м
[Sc]
+21.0 +14.8 68 +25 +25 комфорт 1006.4 989.3
09 23.06 З 3 10 км слаб. ливневой дождь 10/10 600 м
[Cb cap]
+16.1 +12.6 80 +16 +16 холодно 1007.6 990.2
12 23.06 ЮВ 1 10 км слаб. ливневой дождь 10/10 600 м
[Cb cap]
+15.0 +13.2 89 +15 +15 очень
холодно
1009.0 991.6 +21.6 4
15 23.06 Ю 1 20 км {ливн. осадки} 10/10 600 м
[Sc]
+14.9 +14.1 95 +15 +15 прохладно 1009.8 992.4
18 23.06 ЮЗ 3 20 км {ливн. осадки} 10/10 600 м
[Sc]
+13.4 +11.1 86 +12 +12 по сезону 1010.7 993.1
21 23.06 Ю 1 20 км 6/3 600 м
[Sc Ci fib]
+9.5 +8.6 94 +9 +9 холодно 1011.3 993.5
00 24.06 ЮВ 2 20 км 3/1 600 м
[Sc Ci fib]
+11.3 +9.2 87 +10 +12 прохладно 1012.0 994.3 +8.1 0.0
03 24.06 Ю 3 20 км 5/4 600 м
[Cu med, cong Ci fib]
+14.7 +6.4 57 +14 +19 прохладно 1012.3 994.8
06 24.06 Ю 3 20 км 9/9 600 м
[Cu Sc]
+16.1 +5.3 49 +16 +17 холодно 1012.2 994.8
09 24.06 Ю 3 20 км 8/5 600 м
[Cu med, cong Ac As]
+16.7 +6.1 50 +17 +19 холодно 1012.0 994.6
12 24.06 Ю 3 20 км 6/5 600 м
[Cu med, cong Ci ing]
+16.2 +5.7 50 +16 +17 холодно 1012.1 994.6 +17.3
15 24.06 Ю 1 20 км 1/1 600 м
[Sc]
+12.3 +6.7 69 +12 +12 холодно 1012.8 995.1
18 24.06 штиль 0 20 км 1/0
[Ci fib]
+6.5 +5.8 95 +5 +5 очень
холодно
1013.4 995.3
21 24.06 штиль 0 10 км 3/3 600 м
[Sc]
+5.5 +4.9 96 +4 +4 очень
холодно
1013.7 995.6

 

Местоположение метеостанции Кемерово (Кемеровская область, Россия): широта 55.25 долгота 86.22 высота над уровнем моря 148 м.

В архиве по умолчанию представлена погода в Кемерово за последнюю неделю. Архивные данные за месяц целиком и за предыдущие месяцы, начиная с января 2011 года, Вы можете получить, выбрав интересующий диапазон дат из раскрывающегося списка и нажав кнопку "Ввод!".


*Определитесь, кто Вы:
робот инопланетянин человек

Внимание! Время в таблицах - всемирное. Для получения местного времени необходимо прибавить поправку, которая равна 7 ч.

Смотрите также архив погоды в соседних городах и на ближайших метеорологических станциях:

Погода в Кемерово АМС (Кемеровская область, Россия) (17 км)
Погода в Топках (Кемеровская область, Россия) (39 км)
Погода в Крапивино (Кемеровская область, Россия) (47 км)
Погода в Барзасе (Кемеровская область, Россия) (50 км)
Погода в Промышленной (Кемеровская область, Россия) (55 км)
Погода в Ленинск-Кузнецком (Кемеровская область, Россия) (59 км)
Погода в Красном (Кемеровская область, Россия) (89 км)
Погода в Белово (Кемеровская область, Россия) (89 км)
Погода в Центральном Руднике (Кемеровская область, Россия) (91 км)
Погода в Тайге (Кемеровская область, Россия) (99 км)

Пояснения к столбцам:

Ветер - указаны скорость ветра в м/с - средняя за 10 мин, порывы в срок и между сроками (в фигурных скобках) и направление, откуда дует ветер: С - северный, СВ - северо-восточный, В - восточный, ЮВ - юго-восточный, Ю - южный, ЮЗ - юго-западный, З - западный, СЗ - северо-западный.
Видимость - горизонтальная дальность видимости в метрах или километрах. При видимости от 1 до 10 км при отсутствии осадков обычно наблюдается дымка, при ухудшении видимости до 1 км и менее - туман. В сухую погоду видимость может ухудшаться дымом, пылью или мглою.
Явления - указаны атмосферные явления, наблюдавшиеся в срок или в последний час перед сроком; фигурными скобками обозначены явления, наблюдавшиеся между сроками (за 1-3 часа до срока); квадратными скобками обозначены град или гололедные отложения с указанием их диаметра в мм.
Облачность - указаны через наклонную черту общая и нижняя облачность в баллах и высота нижней границы облаков в метрах; квадратными скобками обозначены формы облаков: Ci - перистые, Cs - перисто-слоистые, Cc - перисто-кучевые, Ac - высококучевые, As - высокослоистые, Sc - слоисто-кучевые, Ns - слоисто-дождевые, Cu - кучевые, Cb - кучево-дождевые. Подробнее классификацию облаков см. в Атласе облаков (PDF).
T - Температура воздуха - температура, измеренная на высоте 2 м над землей.
Td - Температура точки росы - температура, при понижении до которой содержащийся в воздухе водяной пар достигнет насыщения.
f - Относительная влажность воздуха - влажноcть воздуха, измеренная на высоте 2 м над землей.
Te - Эффективная температура - температура, которую ощущает одетый по сезону человек в тени. Характеристика душности погоды. При расчете учитывается влияние влажности воздуха и скорости ветра на теплоощущения человека.
Tes - Эффективная температура на солнце - температура, которую ощущает человек, с поправкой на солнечный нагрев. Характеристика знойности погоды. Зависит от высоты солнца над горизонтом, облачности и скорости ветра. Ночью, в пасмурную погоду, а также при ветре 12 м/с и более поправка равна нулю.
P - Атмосферное давление - приведенное к уровню моря атмосферное давление.
Po - Атмосферное давление - измеренное на уровне метеостанции атмосферное давление.
Tmin - Минимальная температура - минимум температуры воздуха на высоте 2 м над землей.
Tmax - Максимальная температура - максимум температуры воздуха на высоте 2 м над землей.
R - Количество осадков - Количество выпавших осадков за период времени, мм. При наведении курсора мыши на число - период времени, за который выпало указанное количество осадков.
R24 - Количество осадков - Количество выпавших осадков за 24 часа, мм.
S - Снежный покров - Высота снежного покрова, см. При наведении курсора мыши на число - состояние снежного покрова и степень покрытия местности в баллах.